Weather Roundup
Issued by NWS

Home | Current Version | Previous Version | Graphics & Text | Print | Product List | Glossary Off
Versions: 1 2 3 4 5 6 7 8 9 10 11 12 13 14 15 16 17 18 19 20 21 22 23 24 25 26 27 28 29 30 31 32 33 34 35 36 37 38 39 40 41 42 43 44 45 46 47 48 49 50

000
NZUS93 KARX 280210
HRRWXR

CURRENT HOURLY OBSERVATIONS ACROSS
MUCH OF THE UPPER MISSISSIPPI VALLEY
NATIONAL WEATHER SERVICE LA CROSSE WI
800 PM CST TUE JAN 27 2015


...SOUTHEAST MINNESOTA...


CITY           SKY/WX    TMP DP  RH WIND       PRES   REMARKS
ROCHESTER      CLOUDY    28  24  85 S13       30.14S WCI  17
ROCHESTER/MAYO CLOUDY    29  24  81 SE9       30.15S WCI  20
WINONA         CLOUDY    30  23  74 SE7       30.19F WCI  23
AUSTIN         CLOUDY    30  27  86 S10       30.13F WCI  21
ALBERT LEA     CLOUDY    32  28  86 S13       30.12S WCI  22
DODGE CENTER   CLOUDY    30  28  93 SE14      30.13R WCI  20
PRESTON        CLOUDY    27  23  84 S7        30.16S WCI  20
OWATONNA       CLOUDY    32  28  86 SE12      30.12S WCI  23
FARIBAULT      CLOUDY    32  28  86 SE8       30.13R WCI  25
$$

...ELSEWHERE IN MINNESOTA...


CITY           SKY/WX    TMP DP  RH WIND       PRES   REMARKS
MINNEAPOLIS    CLOUDY    31  25  78 SE9       30.14S WCI  23
INTNL FALLS    LGT SNOW  29  26  89 S6        30.03F FOG     WCI  23
DULUTH         CLOUDY    27  22  81 S7        30.11S WCI  19
RED WING       CLOUDY    30  23  74 S5        30.16S WCI  25
REDWOOD FALLS  CLOUDY    35  31  85 SE16      30.05S WCI  25
MANKATO        CLOUDY    34  27  75 S12       30.10S WCI  25
WORTHINGTON    CLEAR     34  30  86 SE12      30.02F WCI  25
FAIRMONT       PTCLDY    32  27  80 SE13      30.08R WCI  22
$$

...SOUTHWEST WISCONSIN...


CITY           SKY/WX    TMP DP  RH WIND       PRES   REMARKS
LA CROSSE      CLOUDY    29  21  72 SE6       30.20F WCI  23
PRAIRIE DU CHI CLOUDY    28  20  71 SE3       30.21F
BOSCOBEL       CLOUDY    28  21  75 CALM      30.22S
LONE ROCK      CLOUDY    28  24  85 CALM      30.23R FOG
PLATTEVILLE    CLOUDY    27  24  87 S5        30.22R WCI  22
FORT MC COY    CLOUDY    26  22  83 CALM      30.21F
CAMP DOUGLAS   CLOUDY    27  27 100 S2        30.20R
VIROQUA        CLOUDY    25  22  87 S6        30.18S WCI  18
WIS DELLS      CLOUDY    26  24  93 CALM      30.21R FOG
$$

...ELSEWHERE IN WISCONSIN...


CITY           SKY/WX    TMP DP  RH WIND       PRES   REMARKS
MILWAUKEE      MOCLDY    27  17  66 N3        30.24F
MADISON        CLOUDY    26  20  77 E5        30.20F WCI  20
GREEN BAY      MOCLDY    16  13  88 CALM      30.23F
EAU CLAIRE     MOCLDY    27  20  75 SE8       30.17F WCI  19
BLACK RVR FLS  CLOUDY    27  23  85 CALM      30.20R
MEDFORD        CLOUDY    23  19  86 S3        30.16S
WAUSAU         CLOUDY    24  19  81 SE5       30.17S WCI  18
WIS RAPIDS     CLOUDY    25  21  85 SE3       30.21R
MARSHFIELD     CLOUDY    25  21  85 S6        30.18R WCI  18
RICE LAKE      MOCLDY    27  21  79 SE6       30.17F WCI  20
$$

...NORTHEAST IOWA...


CITY           SKY/WX    TMP DP  RH WIND       PRES   REMARKS
DECORAH        CLOUDY    28  23  80 S7        30.16F WCI  21
MASON CITY     CLOUDY    31  27  85 SE16      30.14S WCI  20
CHARLES CITY   CLOUDY    30  28  93 SE12      30.17S WCI  21
OELWEIN        CLOUDY    30  25  80 S8G15     30.19S WCI  23
$$

...ELSEWHERE IN IOWA...


CITY           SKY/WX    TMP DP  RH WIND       PRES   REMARKS
DES MOINES     CLEAR     34  28  79 SE9       30.14F WCI  27
IOWA CITY      CLOUDY    29  23  78 SE8       30.23F WCI  21
FORT DODGE     CLEAR     34  27  75 SE10      30.11S WCI  26
$$

...NORTHERN ILLINOIS...


CITY           SKY/WX    TMP DP  RH WIND       PRES   REMARKS
CHICAGO-OHARE  PTCLDY    25  17  72 NE5       30.23F WCI  19
CHICAGO-MIDWAY PTCLDY    27  18  69 NE6       30.24F WCI  20
MOLINE         CLOUDY    27  22  81 S3        30.23F
ROCKFORD       PTCLDY    25  20  81 CALM      30.24S
PEORIA         CLOUDY    31  24  75 E6        30.25S WCI  25
$$

NOTE: "FAIR" INDICATES FEW OR NO CLOUDS BELOW 12,000 FEET WITH NO
SIGNIFICANT WEATHER AND/OR OBSTRUCTIONS TO VISIBILITY. WIND
SPEEDS ARE IN MILES-PER-HOUR.



USA.gov is the U.S. government's official web portal to all federal, state and local government web resources and services.